GW1539 Weather Reports


time (UTC)temp
C
wind
direction
speed
KPH
gust
KPH
rain 1hr
cm
rain 24hr
cm
rain mn
cm
humidity
%
barometer
mb
20260901014538 13 267 0.0 0.0 0.00 0.00 0.00 93 1016.9
20260901013048 13 267 0.0 0.0 0.00 0.00 0.00 93 1016.9
20260901010050 13 267 0.0 0.0 0.00 0.00 0.00 93 1016.9
20260901004527 13 267 0.0 0.0 0.00 0.00 0.00 92 1016.8
20260901003025 13 267 0.0 0.0 0.00 0.00 0.00 92 1016.7
20260901000038 14 267 0.0 0.0 0.00 0.00 0.00 92 1016.4
20260831234532 14 267 0.0 0.0 0.00 0.00 0.00 92 1016.3
20260831231537 14 267 0.0 0.0 0.00 0.00 0.00 91 1016.0
20260831224536 15 267 0.0 0.0 0.00 0.00 0.00 91 1015.8
20260831223031 15 267 0.0 0.0 0.00 0.00 0.00 90 1015.6
20260831220104 15 267 0.0 1.6 0.00 0.00 0.00 89 1015.6
20260831214533 15 267 0.0 1.6 0.00 0.00 0.00 89 1015.5
20260831211542 15 267 0.0 0.0 0.00 0.00 0.00 90 1015.1
20260831210039 15 267 0.0 0.0 0.00 0.00 0.00 90 1014.9
20260831204529 15 267 0.0 1.6 0.00 0.00 0.00 88 1014.7
20260831201538 16 267 0.0 0.0 0.00 0.00 0.00 88 1014.5
20260831200033 16 267 0.0 0.0 0.00 0.00 0.00 88 1014.4
20260831193037 17 267 0.0 0.0 0.00 0.00 0.00 86 1014.2
20260831191531 17 267 0.0 0.0 0.00 0.00 0.00 85 1014.2
20260831184533 18 267 0.0 0.0 0.00 0.00 0.00 83 1013.7
20260831183036 18 267 0.0 1.6 0.00 0.00 0.00 83 1013.5
20260831180038 19 267 0.0 0.0 0.00 0.00 0.00 80 1013.2
20260831174535 19 267 0.0 0.0 0.00 0.00 0.00 79 1013.2
20260831171542 21 267 0.0 0.0 0.00 0.00 0.00 76 1013.0
20260831164538 22 267 0.0 3.2 0.00 0.00 0.00 70 1013.2
20260831163039 23 267 0.0 6.4 0.00 0.00 0.00 67 1013.3
20260831160037 25 277 1.6 8.0 0.00 0.00 0.00 58 1013.3
20260831154533 25 268 4.8 11.3 0.00 0.00 0.00 57 1013.4
20260831153026 25 255 1.6 6.4 0.00 0.00 0.00 60 1013.3
20260831150036 26 275 1.6 9.7 0.00 0.00 0.00 57 1013.5
20260831143040 25 265 1.6 6.4 0.00 0.00 0.00 63 1013.6
20260831141530 25 292 1.6 8.0 0.00 0.00 0.00 63 1013.5
20260831134538 26 246 0.0 8.0 0.00 0.00 0.00 66 1013.5
20260831131542 25 242 1.6 11.3 0.00 0.00 0.00 63 1013.8
20260831130043 25 244 4.8 11.3 0.00 0.00 0.00 63 1014.0
20260831124536 25 236 3.2 6.4 0.00 0.00 0.00 61 1013.9
20260831123029 25 267 3.2 9.7 0.00 0.00 0.00 62 1014.2
20260831120037 25 236 4.8 11.3 0.00 0.00 0.00 59 1014.2
20260831114533 25 239 3.2 12.9 0.00 0.00 0.00 59 1014.2
20260831111536 25 223 1.6 12.9 0.00 0.00 0.00 62 1014.5
20260831104549 23 235 1.6 12.9 0.00 0.00 0.00 63 1014.7
20260831103044 23 238 3.2 8.0 0.00 0.00 0.00 62 1014.7
20260831101537 23 244 3.2 8.0 0.00 0.00 0.00 59 1014.7
20260831100037 23 228 4.8 14.5 0.00 0.00 0.00 62 1014.8
20260831094531 22 315 1.6 6.4 0.00 0.00 0.00 65 1014.9
20260831093030 22 315 0.0 6.4 0.00 0.00 0.00 68 1015.1
20260831090035 21 302 0.0 6.4 0.00 0.00 0.00 69 1015.2
20260831083038 20 309 0.0 1.6 0.00 0.00 0.00 71 1015.1
20260831081540 19 309 0.0 0.0 0.00 0.00 0.00 76 1015.1
20260831074538 18 309 0.0 1.6 0.00 0.00 0.00 80 1015.0
20260831071538 17 309 0.0 0.0 0.00 0.00 0.00 84 1015.0
20260831064535 15 309 0.0 0.0 0.00 0.00 0.00 94 1015.0
20260831061529 13 309 0.0 0.0 0.00 0.00 0.00 96 1015.1
20260831054537 12 309 0.0 0.0 0.00 0.00 0.00 96 1015.1
20260831051540 11 309 0.0 0.0 0.00 0.00 0.00 95 1014.9
20260831050042 11 309 0.0 0.0 0.00 0.00 0.00 95 1014.8
20260831043039 11 309 0.0 0.0 0.00 0.00 0.00 95 1014.7
20260831040038 12 309 0.0 0.0 0.00 0.00 0.00 95 1014.7
20260831033043 11 309 0.0 0.0 0.00 0.00 0.00 95 1014.9
20260831030042 12 309 0.0 0.0 0.00 0.00 0.00 95 1015.2
20260831023042 12 309 0.0 0.0 0.00 0.00 0.00 95 1015.3